User: anonymous   Login
Location: The Rolnick Observatory
(41.1711°N, 73.3275°W)
Time: 23:00:56
(UTC-04:00)
Language:

Envisat - Orbit

View from above orbital plane
View from above orbital plane
View from above satellite
View from above satellite

Ground track
Ground track

The orbit data is extracted from the following two-line orbital elements,

1 27386U 02009A   19289.51372830 -.00000009  00000-0  10597-4 0  9991
2 27386  98.1452 304.3857 0001170  92.7796  81.3524 14.37959795923417
Epoch (UTC): 16 October 2019 12:19:46
Eccentricity: 0.0001170
inclination: 98.1452°
perigee height: 764 km
apogee height: 766 km
right ascension of ascending node: 304.3857°
argument of perigee: 92.7796°
revolutions per day: 14.37959795
mean anomaly at epoch: 81.3524°
orbit number at epoch: 92341

The dashed part of the orbit path shows where the satellite is in the earth's shadow,  

DLR